Tracking 19909 objects as of 21-Oct-2019
HD Live streaming from Space Station
objects crossing your sky now

COSMOS 2192

Track COSMOS 2192 now!
10-day predictions
COSMOS 2192 is classified as:


NORAD ID: 21981
Int'l Code: 1992-030F
Perigee: 1,479.0 km
Apogee: 1,492.3 km
Inclination: 74.0 °
Period: 115.5 minutes
Semi major axis: 7856 km
RCS: 0.6788 m2 (medium)
Launch date: June 3, 1992
Source: Commonwealth of Independent States (former USSR) (CIS)
Launch site: PLESETSK MISSILE AND SPACE COMPLEX (PKMTR)
aabbcc
Your satellite tracking list
Your tracking list is empty




NASA's NSSDC Master Catalog

Two Line Element Set (TLE):
1 21981U 92030F   19292.24446271 -.00000006  00000-0  67488-4 0  9992
2 21981  74.0066   7.5891 0008494  35.1372  32.8150 12.46653046246099
Source of the keplerian elements: AFSPC